Time,TemperatureF,DewpointF,PressureIn,WindDirection,WindDirectionDegrees,WindSpeedMPH,WindSpeedGustMPH,Humidity,HourlyPrecipIn,Conditions,Clouds,dailyrainin,SoftwareType,DateUTC
2013-01-02 00:00:00,66.7,57.8,29.96,SSE,158,0.0,0.0,73,0.00,,---,0.00,VWS V13.01,2013-01-02 05:00:00,
2013-01-02 00:03:00,66.7,57.8,29.96,SSE,158,0.0,0.0,73,0.00,,---,0.00,VWS V13.01,2013-01-02 05:03:00,
2013-01-02 00:08:00,66.7,57.8,29.96,SSE,158,0.0,0.0,73,0.00,,---,0.00,VWS V13.01,2013-01-02 05:08:00,
2013-01-02 00:13:00,66.6,57.7,29.96,SSE,158,0.0,0.0,73,0.00,,---,0.00,VWS V13.01,2013-01-02 05:13:00,
2013-01-02 00:18:00,66.4,57.5,29.96,SSE,158,0.0,0.0,73,0.00,,---,0.00,VWS V13.01,2013-01-02 05:18:00,
2013-01-02 00:23:00,66.4,57.5,29.96,SSE,158,0.0,0.0,73,0.00,,---,0.00,VWS V13.01,2013-01-02 05:23:00,
2013-01-02 00:28:00,66.2,57.3,29.96,SSE,158,0.0,0.0,73,0.00,,---,0.00,VWS V13.01,2013-01-02 05:28:00,
2013-01-02 00:33:00,66.0,57.9,29.96,SSE,158,0.0,0.0,75,0.00,,---,0.00,VWS V13.01,2013-01-02 05:33:00,
2013-01-02 00:38:00,66.0,57.9,29.96,SSE,158,0.0,0.0,75,0.00,,---,0.00,VWS V13.01,2013-01-02 05:38:00,
2013-01-02 00:43:00,65.8,57.7,29.96,SSE,158,0.0,0.0,75,0.00,,---,0.00,VWS V13.01,2013-01-02 05:43:00,
2013-01-02 00:48:00,65.8,57.7,29.96,SSE,158,0.0,0.0,75,0.00,,---,0.00,VWS V13.01,2013-01-02 05:48:00,
2013-01-02 00:53:00,65.7,57.5,29.95,SSE,158,0.0,0.0,75,0.00,,---,0.00,VWS V13.01,2013-01-02 05:53:00,
2013-01-02 00:58:00,65.5,57.4,29.95,SSE,158,0.0,0.0,75,0.00,,---,0.00,VWS V13.01,2013-01-02 05:58:00,
2013-01-02 01:03:00,65.5,57.4,29.95,SSE,158,0.0,0.0,75,0.00,,---,0.00,VWS V13.01,2013-01-02 06:03:00,
2013-01-02 01:08:00,65.5,57.4,29.95,SSE,158,0.0,0.0,75,0.00,,---,0.00,VWS V13.01,2013-01-02 06:08:00,
2013-01-02 01:13:00,65.1,57.0,29.95,SSE,158,0.0,0.0,75,0.00,,---,0.00,VWS V13.01,2013-01-02 06:13:00,
2013-01-02 01:18:00,65.1,57.0,29.95,SSE,158,0.0,0.0,75,0.00,,---,0.00,VWS V13.01,2013-01-02 06:18:00,
2013-01-02 01:23:00,64.9,56.8,29.95,SSE,158,0.0,0.0,75,0.00,,---,0.00,VWS V13.01,2013-01-02 06:23:00,
2013-01-02 01:28:00,64.9,56.8,29.95,SSE,158,0.0,0.0,75,0.00,,---,0.00,VWS V13.01,2013-01-02 06:28:00,
2013-01-02 01:33:00,64.8,56.7,29.95,SSE,158,0.0,0.0,75,0.00,,---,0.00,VWS V13.01,2013-01-02 06:33:00,
2013-01-02 01:38:00,64.8,57.0,29.95,SSE,158,0.0,0.0,76,0.00,,---,0.00,VWS V13.01,2013-01-02 06:38:00,
2013-01-02 01:43:00,64.8,57.0,29.95,SSE,158,0.0,0.0,76,0.00,,---,0.00,VWS V13.01,2013-01-02 06:43:00,
2013-01-02 01:48:00,64.6,56.8,29.95,SSE,158,0.0,0.0,76,0.00,,---,0.00,VWS V13.01,2013-01-02 06:48:00,
2013-01-02 01:53:00,64.6,56.8,29.95,SSE,158,0.0,0.0,76,0.00,,---,0.00,VWS V13.01,2013-01-02 06:53:00,
2013-01-02 01:58:00,64.6,56.8,29.95,SSE,158,0.0,0.0,76,0.00,,---,0.00,VWS V13.01,2013-01-02 06:58:00,
2013-01-02 02:03:00,64.6,56.8,29.95,SSE,158,0.0,0.0,76,0.00,,---,0.00,VWS V13.01,2013-01-02 07:03:00,
2013-01-02 02:08:00,64.6,56.8,29.95,SSE,158,0.0,0.0,76,0.00,,---,0.00,VWS V13.01,2013-01-02 07:08:00,
2013-01-02 02:13:00,64.6,57.2,29.95,SSE,158,0.0,0.0,77,0.00,,---,0.00,VWS V13.01,2013-01-02 07:13:00,
2013-01-02 02:18:00,64.6,57.2,29.94,SSE,158,0.0,0.0,77,0.00,,---,0.00,VWS V13.01,2013-01-02 07:18:00,
2013-01-02 02:23:00,64.8,57.4,29.94,SSE,158,0.0,0.0,77,0.00,,---,0.00,VWS V13.01,2013-01-02 07:23:00,
2013-01-02 02:28:00,64.8,57.4,29.94,SSE,158,0.0,0.0,77,0.00,,---,0.00,VWS V13.01,2013-01-02 07:28:00,
2013-01-02 02:33:00,64.6,57.2,29.94,SSE,158,0.0,0.0,77,0.00,,---,0.00,VWS V13.01,2013-01-02 07:33:00,
2013-01-02 02:38:00,64.6,57.2,29.95,SSE,158,0.0,0.0,77,0.00,,---,0.00,VWS V13.01,2013-01-02 07:38:00,
2013-01-02 02:43:00,64.6,57.2,29.95,SSE,158,0.0,0.0,77,0.00,,---,0.00,VWS V13.01,2013-01-02 07:43:00,
2013-01-02 02:48:00,64.2,56.9,29.95,SSE,158,0.0,0.0,77,0.00,,---,0.00,VWS V13.01,2013-01-02 07:48:00,
2013-01-02 02:53:00,64.2,56.9,29.95,SSE,158,0.0,0.0,77,0.00,,---,0.00,VWS V13.01,2013-01-02 07:53:00,
2013-01-02 02:58:00,64.0,56.7,29.95,SSE,158,0.0,0.0,77,0.00,,---,0.00,VWS V13.01,2013-01-02 07:58:00,
2013-01-02 03:03:00,64.0,56.7,29.95,SSE,158,0.0,0.0,77,0.00,,---,0.00,VWS V13.01,2013-01-02 08:03:00,
2013-01-02 03:08:00,64.0,56.7,29.95,SSE,158,0.0,0.0,77,0.00,,---,0.00,VWS V13.01,2013-01-02 08:08:00,
2013-01-02 03:13:00,63.9,56.5,29.95,SSE,158,0.0,0.0,77,0.00,,---,0.00,VWS V13.01,2013-01-02 08:13:00,
2013-01-02 03:18:00,63.9,56.5,29.95,SSE,158,0.0,0.0,77,0.00,,---,0.00,VWS V13.01,2013-01-02 08:18:00,
2013-01-02 03:23:00,64.0,57.0,29.95,SSE,158,0.0,0.0,78,0.00,,---,0.00,VWS V13.01,2013-01-02 08:23:00,
2013-01-02 03:28:00,64.0,57.0,29.95,SSE,158,0.0,0.0,78,0.00,,---,0.00,VWS V13.01,2013-01-02 08:28:00,
2013-01-02 03:33:00,64.2,57.2,29.94,SSE,158,0.0,0.0,78,0.00,,---,0.00,VWS V13.01,2013-01-02 08:33:00,
2013-01-02 03:38:00,64.0,57.0,29.95,SSE,158,0.0,0.0,78,0.00,,---,0.00,VWS V13.01,2013-01-02 08:38:00,
2013-01-02 03:43:00,64.0,57.0,29.95,SSE,158,0.0,0.0,78,0.00,,---,0.00,VWS V13.01,2013-01-02 08:43:00,
2013-01-02 03:48:00,64.0,57.0,29.95,SSE,158,0.0,0.0,78,0.00,,---,0.00,VWS V13.01,2013-01-02 08:48:00,
2013-01-02 03:53:00,64.0,57.0,29.95,SSE,158,0.0,0.0,78,0.00,,---,0.00,VWS V13.01,2013-01-02 08:53:00,
2013-01-02 03:58:00,64.2,57.2,29.95,SSE,158,0.0,0.0,78,0.00,,---,0.00,VWS V13.01,2013-01-02 08:58:00,
2013-01-02 04:03:00,64.4,57.4,29.95,SSE,158,0.0,0.0,78,0.00,,---,0.00,VWS V13.01,2013-01-02 09:03:00,
2013-01-02 04:08:00,64.4,57.4,29.95,SSE,158,0.0,0.0,78,0.00,,---,0.00,VWS V13.01,2013-01-02 09:08:00,
2013-01-02 04:13:00,64.6,57.9,29.95,SSE,158,0.0,0.0,79,0.00,,---,0.00,VWS V13.01,2013-01-02 09:13:00,
2013-01-02 04:18:00,64.6,57.9,29.95,SSE,158,0.0,0.0,79,0.00,,---,0.00,VWS V13.01,2013-01-02 09:18:00,
2013-01-02 04:23:00,64.8,58.1,29.95,SSE,158,0.0,0.0,79,0.00,,---,0.00,VWS V13.01,2013-01-02 09:23:00,
2013-01-02 04:28:00,64.8,58.1,29.95,SSE,158,0.0,0.0,79,0.00,,---,0.00,VWS V13.01,2013-01-02 09:28:00,
2013-01-02 04:33:00,64.9,58.3,29.95,SSE,158,0.0,0.0,79,0.00,,---,0.00,VWS V13.01,2013-01-02 09:33:00,
2013-01-02 04:38:00,64.9,58.3,29.95,SSE,158,0.0,0.0,79,0.00,,---,0.00,VWS V13.01,2013-01-02 09:38:00,
2013-01-02 04:43:00,64.9,58.6,29.95,SSE,158,0.0,0.0,80,0.00,,---,0.00,VWS V13.01,2013-01-02 09:43:00,
2013-01-02 04:48:00,64.9,58.6,29.95,SSE,158,0.0,0.0,80,0.00,,---,0.00,VWS V13.01,2013-01-02 09:48:00,
2013-01-02 04:53:00,65.1,58.8,29.95,SSE,158,0.0,0.0,80,0.00,,---,0.00,VWS V13.01,2013-01-02 09:53:00,
2013-01-02 04:58:00,64.8,58.5,29.95,SSE,158,0.0,0.0,80,0.00,,---,0.00,VWS V13.01,2013-01-02 09:58:00,
2013-01-02 05:03:00,64.8,58.5,29.95,SSE,158,0.0,0.0,80,0.00,,---,0.00,VWS V13.01,2013-01-02 10:03:00,
2013-01-02 05:08:00,64.8,58.5,29.95,SSE,158,0.0,0.0,80,0.00,,---,0.00,VWS V13.01,2013-01-02 10:08:00,
2013-01-02 05:13:00,64.6,58.3,29.95,SSE,158,0.0,0.0,80,0.00,,---,0.00,VWS V13.01,2013-01-02 10:13:00,
2013-01-02 05:18:00,64.4,58.1,29.95,SSE,158,0.0,0.0,80,0.00,,---,0.00,VWS V13.01,2013-01-02 10:18:00,
2013-01-02 05:23:00,64.2,57.9,29.96,SSE,158,0.0,0.0,80,0.00,,---,0.00,VWS V13.01,2013-01-02 10:23:00,
2013-01-02 05:28:00,64.0,57.8,29.95,SSE,158,0.0,0.0,80,0.00,,---,0.00,VWS V13.01,2013-01-02 10:28:00,
2013-01-02 05:33:00,64.0,57.8,29.96,SSE,158,0.0,0.0,80,0.00,,---,0.00,VWS V13.01,2013-01-02 10:33:00,
2013-01-02 05:38:00,63.9,57.6,29.95,SSE,158,0.0,0.0,80,0.00,,---,0.00,VWS V13.01,2013-01-02 10:38:00,
2013-01-02 05:43:00,63.7,57.4,29.96,SSE,158,0.0,0.0,80,0.00,,---,0.00,VWS V13.01,2013-01-02 10:43:00,
2013-01-02 05:48:00,63.5,57.6,29.96,SSE,158,0.0,0.0,81,0.00,,---,0.00,VWS V13.01,2013-01-02 10:48:00,
2013-01-02 05:53:00,63.5,57.6,29.96,SSE,158,0.0,0.0,81,0.00,,---,0.00,VWS V13.01,2013-01-02 10:53:00,
2013-01-02 05:58:00,63.5,57.6,29.96,SSE,158,0.0,0.0,81,0.00,,---,0.00,VWS V13.01,2013-01-02 10:58:00,
2013-01-02 06:03:00,63.5,57.6,29.96,SSE,158,0.0,0.0,81,0.00,,---,0.00,VWS V13.01,2013-01-02 11:03:00,
2013-01-02 06:08:00,63.5,57.6,29.96,SSE,158,0.0,0.0,81,0.00,,---,0.00,VWS V13.01,2013-01-02 11:08:00,
2013-01-02 06:13:00,63.5,57.6,29.96,SSE,158,0.0,0.0,81,0.00,,---,0.00,VWS V13.01,2013-01-02 11:13:00,
2013-01-02 06:18:00,63.1,57.2,29.96,SSE,158,0.0,0.0,81,0.00,,---,0.00,VWS V13.01,2013-01-02 11:18:00,
2013-01-02 06:23:00,63.0,57.0,29.97,SSE,158,0.0,0.0,81,0.00,,---,0.00,VWS V13.01,2013-01-02 11:23:00,
2013-01-02 06:28:00,63.0,57.0,29.97,SSE,158,0.0,0.0,81,0.00,,---,0.00,VWS V13.01,2013-01-02 11:28:00,
2013-01-02 06:33:00,62.8,56.9,29.97,SSE,158,0.0,0.0,81,0.00,,---,0.00,VWS V13.01,2013-01-02 11:33:00,
2013-01-02 06:38:00,62.8,56.9,29.97,SSE,158,0.0,0.0,81,0.00,,---,0.00,VWS V13.01,2013-01-02 11:38:00,
2013-01-02 06:43:00,62.8,56.9,29.97,SSE,158,0.0,0.0,81,0.00,,---,0.00,VWS V13.01,2013-01-02 11:43:00,
2013-01-02 06:48:00,62.8,56.9,29.97,SSE,158,0.0,0.0,81,0.00,,---,0.00,VWS V13.01,2013-01-02 11:48:00,
2013-01-02 06:53:00,62.6,56.7,29.97,SSE,158,0.0,0.0,81,0.00,,---,0.00,VWS V13.01,2013-01-02 11:53:00,
2013-01-02 06:58:00,62.4,56.9,29.97,SSE,158,0.0,0.0,82,0.00,,---,0.00,VWS V13.01,2013-01-02 11:58:00,
2013-01-02 07:03:00,62.4,56.9,29.97,SSE,158,0.0,0.0,82,0.00,,---,0.00,VWS V13.01,2013-01-02 12:03:00,
2013-01-02 07:08:00,62.2,56.7,29.97,SSE,158,0.0,0.0,82,0.00,,---,0.00,VWS V13.01,2013-01-02 12:08:00,
2013-01-02 07:13:00,62.2,56.7,29.97,SSE,158,0.0,0.0,82,0.00,,---,0.00,VWS V13.01,2013-01-02 12:13:00,
2013-01-02 07:18:00,62.4,56.9,29.97,SSE,158,0.0,0.0,82,0.00,,---,0.00,VWS V13.01,2013-01-02 12:18:00,
2013-01-02 07:23:00,62.2,56.7,29.98,SSE,158,0.0,0.0,82,0.00,,---,0.00,VWS V13.01,2013-01-02 12:23:00,
2013-01-02 07:28:00,62.2,56.7,29.98,SE,135,0.0,0.0,82,0.00,,---,0.00,VWS V13.01,2013-01-02 12:28:00,
2013-01-02 07:33:00,62.2,56.7,29.98,SE,135,0.0,0.0,82,0.00,,---,0.00,VWS V13.01,2013-01-02 12:33:00,
2013-01-02 07:38:00,62.8,57.2,29.98,SE,135,0.0,0.0,82,0.00,,---,0.00,VWS V13.01,2013-01-02 12:38:00,
2013-01-02 07:43:00,62.8,57.2,29.98,SE,135,0.0,0.0,82,0.00,,---,0.00,VWS V13.01,2013-01-02 12:43:00,
2013-01-02 07:48:00,63.1,57.6,29.99,SE,135,0.0,0.0,82,0.00,,---,0.00,VWS V13.01,2013-01-02 12:48:00,
2013-01-02 07:53:00,63.5,57.9,29.99,SE,135,0.0,0.0,82,0.00,,---,0.00,VWS V13.01,2013-01-02 12:53:00,
2013-01-02 07:58:00,63.9,58.3,29.99,NW,315,0.0,0.0,82,0.00,,---,0.00,VWS V13.01,2013-01-02 12:58:00,
2013-01-02 08:03:00,64.4,59.1,29.99,WNW,292,0.0,0.0,83,0.00,,---,0.00,VWS V13.01,2013-01-02 13:03:00,
2013-01-02 08:08:00,64.9,59.7,29.99,WNW,292,0.0,0.0,83,0.00,,---,0.00,VWS V13.01,2013-01-02 13:08:00,
2013-01-02 08:13:00,65.5,60.2,29.99,WNW,292,0.0,0.0,83,0.00,,---,0.00,VWS V13.01,2013-01-02 13:13:00,
2013-01-02 08:18:00,65.8,60.5,29.99,WNW,292,0.0,0.0,83,0.00,,---,0.00,VWS V13.01,2013-01-02 13:18:00,
2013-01-02 08:23:00,66.4,61.1,29.99,WNW,292,0.0,0.0,83,0.00,,---,0.00,VWS V13.01,2013-01-02 13:23:00,
2013-01-02 08:28:00,66.9,61.6,29.99,WNW,292,0.0,0.0,83,0.00,,---,0.00,VWS V13.01,2013-01-02 13:28:00,
2013-01-02 08:33:00,67.6,62.0,29.99,WNW,292,0.0,0.0,82,0.00,,---,0.00,VWS V13.01,2013-01-02 13:33:00,
2013-01-02 08:38:00,68.2,62.5,29.99,WNW,292,0.0,0.0,82,0.00,,---,0.00,VWS V13.01,2013-01-02 13:38:00,
2013-01-02 08:43:00,68.7,63.3,29.99,South,180,0.0,0.0,83,0.00,,---,0.00,VWS V13.01,2013-01-02 13:43:00,
2013-01-02 08:48:00,69.3,63.9,29.99,ENE,68,0.0,0.0,83,0.00,,---,0.00,VWS V13.01,2013-01-02 13:48:00,
2013-01-02 08:53:00,69.8,64.1,29.99,ENE,68,0.0,0.0,82,0.00,,---,0.00,VWS V13.01,2013-01-02 13:53:00,
2013-01-02 08:58:00,70.5,64.8,29.99,ENE,68,0.0,0.0,82,0.00,,---,0.00,VWS V13.01,2013-01-02 13:58:00,
2013-01-02 09:03:00,70.7,64.9,29.99,ENE,68,0.0,0.0,82,0.00,,---,0.00,VWS V13.01,2013-01-02 14:03:00,
2013-01-02 09:08:00,71.4,65.6,29.99,ENE,68,0.0,0.0,82,0.00,,---,0.00,VWS V13.01,2013-01-02 14:08:00,
2013-01-02 09:13:00,72.0,64.7,29.99,ENE,68,0.0,0.0,78,0.00,,---,0.00,VWS V13.01,2013-01-02 14:13:00,
2013-01-02 09:18:00,72.5,65.3,29.99,ENE,68,0.0,0.0,78,0.00,,---,0.00,VWS V13.01,2013-01-02 14:18:00,
2013-01-02 09:23:00,73.0,65.8,29.99,ENE,68,0.0,0.0,78,0.00,,---,0.00,VWS V13.01,2013-01-02 14:23:00,
2013-01-02 09:28:00,73.6,64.4,30.00,ENE,68,0.0,0.0,73,0.00,,---,0.00,VWS V13.01,2013-01-02 14:28:00,
2013-01-02 09:33:00,74.1,64.5,30.00,ENE,68,0.0,0.0,72,0.00,,---,0.00,VWS V13.01,2013-01-02 14:33:00,
2013-01-02 09:38:00,74.7,65.0,30.00,ENE,68,0.0,1.1,72,0.00,,---,0.00,VWS V13.01,2013-01-02 14:38:00,
2013-01-02 09:43:00,74.8,65.2,30.00,WNW,292,0.0,1.1,72,0.00,,---,0.00,VWS V13.01,2013-01-02 14:43:00,
2013-01-02 09:48:00,75.4,65.7,30.00,SE,135,0.0,1.1,72,0.00,,---,0.00,VWS V13.01,2013-01-02 14:48:00,
2013-01-02 09:53:00,75.6,65.9,30.00,South,180,0.0,3.6,72,0.00,,---,0.00,VWS V13.01,2013-01-02 14:53:00,
2013-01-02 09:58:00,76.1,66.4,30.00,South,180,0.0,4.0,72,0.00,,---,0.00,VWS V13.01,2013-01-02 14:58:00,
2013-01-02 10:03:00,76.5,66.8,30.00,SSW,202,0.0,0.0,72,0.00,,---,0.00,VWS V13.01,2013-01-02 15:03:00,
2013-01-02 10:08:00,76.3,66.6,30.00,SW,225,0.0,1.8,72,0.00,,---,0.00,VWS V13.01,2013-01-02 15:08:00,
2013-01-02 10:13:00,76.1,66.4,30.01,SSE,158,0.0,2.5,72,0.00,,---,0.00,VWS V13.01,2013-01-02 15:13:00,
2013-01-02 10:18:00,75.9,62.0,30.01,SSW,202,0.0,2.5,62,0.00,,---,0.00,VWS V13.01,2013-01-02 15:18:00,
2013-01-02 10:23:00,76.1,62.2,30.00,SSW,202,0.0,2.5,62,0.00,,---,0.00,VWS V13.01,2013-01-02 15:23:00,
2013-01-02 10:28:00,76.3,62.3,30.00,WSW,248,0.0,2.5,62,0.00,,---,0.00,VWS V13.01,2013-01-02 15:28:00,
2013-01-02 10:33:00,76.5,62.5,30.00,WSW,248,0.0,2.5,62,0.00,,---,0.00,VWS V13.01,2013-01-02 15:33:00,
2013-01-02 10:38:00,76.5,62.5,30.00,SW,225,0.0,2.5,62,0.00,,---,0.00,VWS V13.01,2013-01-02 15:38:00,
2013-01-02 10:43:00,76.6,62.7,30.00,WSW,248,3.8,3.8,62,0.00,,---,0.00,VWS V13.01,2013-01-02 15:43:00,
2013-01-02 10:48:00,77.5,63.5,30.00,WSW,248,2.2,3.8,62,0.00,,---,0.00,VWS V13.01,2013-01-02 15:48:00,
2013-01-02 10:53:00,78.8,64.7,30.00,WSW,248,0.0,3.8,62,0.00,,---,0.00,VWS V13.01,2013-01-02 15:53:00,
2013-01-02 10:58:00,79.5,65.4,30.00,West,270,0.0,3.8,62,0.00,,---,0.00,VWS V13.01,2013-01-02 15:58:00,
2013-01-02 11:03:00,80.2,66.1,29.99,SSE,158,0.0,0.0,62,0.00,,---,0.00,VWS V13.01,2013-01-02 16:03:00,
2013-01-02 11:08:00,81.0,66.7,29.99,SSE,158,0.0,2.2,62,0.00,,---,0.00,VWS V13.01,2013-01-02 16:08:00,
2013-01-02 11:13:00,81.3,63.1,29.99,WSW,248,0.0,5.4,54,0.00,,---,0.00,VWS V13.01,2013-01-02 16:13:00,
2013-01-02 11:18:00,81.3,63.1,29.99,WSW,248,0.0,5.4,54,0.00,,---,0.00,VWS V13.01,2013-01-02 16:18:00,
2013-01-02 11:23:00,81.3,63.1,29.99,South,180,0.0,5.4,54,0.00,,---,0.00,VWS V13.01,2013-01-02 16:23:00,
2013-01-02 11:28:00,81.5,63.3,29.99,SW,225,0.0,5.4,54,0.00,,---,0.00,VWS V13.01,2013-01-02 16:28:00,
2013-01-02 11:33:00,81.5,61.1,29.99,SW,225,0.0,5.4,50,0.00,,---,0.00,VWS V13.01,2013-01-02 16:33:00,
2013-01-02 11:38:00,82.2,61.8,29.98,West,270,0.0,5.4,50,0.00,,---,0.00,VWS V13.01,2013-01-02 16:38:00,
2013-01-02 11:43:00,82.6,62.1,29.98,West,270,0.0,5.4,50,0.00,,---,0.00,VWS V13.01,2013-01-02 16:43:00,
2013-01-02 11:48:00,82.8,62.2,29.97,WSW,248,3.1,5.4,50,0.00,,---,0.00,VWS V13.01,2013-01-02 16:48:00,
2013-01-02 11:53:00,83.1,62.6,29.97,SSW,202,0.0,5.4,50,0.00,,---,0.00,VWS V13.01,2013-01-02 16:53:00,
2013-01-02 11:58:00,83.8,63.2,29.97,SSE,158,0.0,5.4,50,0.00,,---,0.00,VWS V13.01,2013-01-02 16:58:00,
2013-01-02 12:03:00,84.0,58.5,29.97,SSE,158,0.0,0.0,42,0.00,,---,0.00,VWS V13.01,2013-01-02 17:03:00,
2013-01-02 12:08:00,83.5,58.0,29.96,SSE,158,0.0,2.5,42,0.00,,---,0.00,VWS V13.01,2013-01-02 17:08:00,
2013-01-02 12:13:00,82.6,57.2,29.96,ESE,112,0.0,2.5,42,0.00,,---,0.00,VWS V13.01,2013-01-02 17:13:00,
2013-01-02 12:18:00,81.5,56.2,29.96,SW,225,0.0,2.5,42,0.00,,---,0.00,VWS V13.01,2013-01-02 17:18:00,
2013-01-02 12:23:00,81.0,57.0,29.95,SW,225,0.0,2.5,44,0.00,,---,0.00,VWS V13.01,2013-01-02 17:23:00,
2013-01-02 12:28:00,80.8,56.9,29.96,WSW,248,0.0,2.5,44,0.00,,---,0.00,VWS V13.01,2013-01-02 17:28:00,
2013-01-02 12:33:00,81.3,57.3,29.95,West,270,0.0,2.5,44,0.00,,---,0.00,VWS V13.01,2013-01-02 17:33:00,
2013-01-02 12:38:00,81.7,57.7,29.95,West,270,0.0,4.0,44,0.00,,---,0.00,VWS V13.01,2013-01-02 17:38:00,
2013-01-02 12:43:00,81.5,57.5,29.95,West,270,0.0,4.0,44,0.00,,---,0.00,VWS V13.01,2013-01-02 17:43:00,
2013-01-02 12:48:00,81.3,56.7,29.94,WNW,292,0.0,4.0,43,0.00,,---,0.00,VWS V13.01,2013-01-02 17:48:00,
2013-01-02 12:53:00,81.1,56.5,29.94,WNW,292,0.0,4.0,43,0.00,,---,0.00,VWS V13.01,2013-01-02 17:53:00,
2013-01-02 12:58:00,81.0,56.4,29.94,West,270,0.0,4.0,43,0.00,,---,0.00,VWS V13.01,2013-01-02 17:58:00,
2013-01-02 13:03:00,80.8,56.2,29.93,NW,315,0.0,1.3,43,0.00,,---,0.00,VWS V13.01,2013-01-02 18:03:00,
2013-01-02 13:08:00,81.3,56.7,29.93,NW,315,0.0,5.1,43,0.00,,---,0.00,VWS V13.01,2013-01-02 18:08:00,
2013-01-02 13:13:00,81.9,57.2,29.93,WSW,248,0.0,5.1,43,0.00,,---,0.00,VWS V13.01,2013-01-02 18:13:00,
2013-01-02 13:18:00,82.8,58.0,29.93,West,270,3.6,5.1,43,0.00,,---,0.00,VWS V13.01,2013-01-02 18:18:00,
2013-01-02 13:23:00,82.8,58.0,29.93,West,270,0.0,5.1,43,0.00,,---,0.00,VWS V13.01,2013-01-02 18:23:00,
2013-01-02 13:28:00,82.4,57.7,29.93,WNW,292,1.1,5.1,43,0.00,,---,0.00,VWS V13.01,2013-01-02 18:28:00,
2013-01-02 13:33:00,81.5,56.9,29.92,WNW,292,0.0,5.8,43,0.00,,---,0.00,VWS V13.01,2013-01-02 18:33:00,
2013-01-02 13:38:00,81.0,56.4,29.92,West,270,0.0,5.8,43,0.00,,---,0.00,VWS V13.01,2013-01-02 18:38:00,
2013-01-02 13:43:00,80.8,56.2,29.92,WNW,292,0.0,5.8,43,0.00,,---,0.00,VWS V13.01,2013-01-02 18:43:00,
2013-01-02 13:48:00,80.8,56.2,29.92,WNW,292,0.0,5.8,43,0.00,,---,0.00,VWS V13.01,2013-01-02 18:48:00,
2013-01-02 13:53:00,82.0,57.4,29.91,WSW,248,0.0,5.8,43,0.00,,---,0.00,VWS V13.01,2013-01-02 18:53:00,
2013-01-02 13:58:00,83.1,58.3,29.91,WSW,248,0.0,5.8,43,0.00,,---,0.00,VWS V13.01,2013-01-02 18:58:00,
2013-01-02 14:03:00,83.8,59.0,29.91,SW,225,1.1,4.9,43,0.00,,---,0.00,VWS V13.01,2013-01-02 19:03:00,
2013-01-02 14:08:00,84.7,59.8,29.91,WSW,248,3.1,4.9,43,0.00,,---,0.00,VWS V13.01,2013-01-02 19:08:00,
2013-01-02 14:13:00,85.1,60.1,29.91,WSW,248,2.0,5.1,43,0.00,,---,0.00,VWS V13.01,2013-01-02 19:13:00,
2013-01-02 14:18:00,85.3,60.3,29.91,SW,225,0.0,5.6,43,0.00,,---,0.00,VWS V13.01,2013-01-02 19:18:00,
2013-01-02 14:23:00,85.1,55.9,29.91,WNW,292,0.0,5.6,37,0.00,,---,0.00,VWS V13.01,2013-01-02 19:23:00,
2013-01-02 14:28:00,85.3,56.1,29.91,South,180,0.9,5.6,37,0.00,,---,0.00,VWS V13.01,2013-01-02 19:28:00,
2013-01-02 14:33:00,85.5,56.2,29.91,WSW,248,0.0,5.6,37,0.00,,---,0.00,VWS V13.01,2013-01-02 19:33:00,
2013-01-02 14:38:00,85.6,56.4,29.91,SW,225,0.0,5.8,37,0.00,,---,0.00,VWS V13.01,2013-01-02 19:38:00,
2013-01-02 14:43:00,85.6,56.4,29.91,West,270,0.0,5.8,37,0.00,,---,0.00,VWS V13.01,2013-01-02 19:43:00,
2013-01-02 14:48:00,85.5,56.2,29.91,WNW,292,0.0,5.8,37,0.00,,---,0.00,VWS V13.01,2013-01-02 19:48:00,
2013-01-02 14:53:00,85.5,56.2,29.91,SSW,202,0.0,5.8,37,0.00,,---,0.00,VWS V13.01,2013-01-02 19:53:00,
2013-01-02 14:58:00,85.8,55.8,29.90,SW,225,2.0,6.3,36,0.00,,---,0.00,VWS V13.01,2013-01-02 19:58:00,
2013-01-02 15:03:00,85.6,55.7,29.90,SW,225,2.2,3.8,36,0.00,,---,0.00,VWS V13.01,2013-01-02 20:03:00,
2013-01-02 15:08:00,85.8,55.8,29.90,SSW,202,3.8,3.8,36,0.00,,---,0.00,VWS V13.01,2013-01-02 20:08:00,
2013-01-02 15:13:00,86.0,56.0,29.90,West,270,0.0,5.1,36,0.00,,---,0.00,VWS V13.01,2013-01-02 20:13:00,
2013-01-02 15:18:00,86.2,56.1,29.91,SW,225,4.3,6.3,36,0.00,,---,0.00,VWS V13.01,2013-01-02 20:18:00,
2013-01-02 15:23:00,85.5,55.5,29.91,SW,225,1.6,6.3,36,0.00,,---,0.00,VWS V13.01,2013-01-02 20:23:00,
2013-01-02 15:28:00,85.1,55.2,29.90,SW,225,0.0,6.3,36,0.00,,---,0.00,VWS V13.01,2013-01-02 20:28:00,
2013-01-02 15:33:00,84.6,54.7,29.90,SW,225,0.0,6.3,36,0.00,,---,0.00,VWS V13.01,2013-01-02 20:33:00,
2013-01-02 15:38:00,83.8,54.8,29.91,WSW,248,0.0,6.3,37,0.00,,---,0.00,VWS V13.01,2013-01-02 20:38:00,
2013-01-02 15:43:00,83.7,54.7,29.91,WSW,248,6.5,6.5,37,0.00,,---,0.00,VWS V13.01,2013-01-02 20:43:00,
2013-01-02 15:48:00,83.7,54.7,29.91,West,270,0.0,6.5,37,0.00,,---,0.00,VWS V13.01,2013-01-02 20:48:00,
2013-01-02 15:53:00,83.5,55.2,29.90,WNW,292,0.0,6.5,38,0.00,,---,0.00,VWS V13.01,2013-01-02 20:53:00,
2013-01-02 15:58:00,83.7,55.4,29.91,WNW,292,0.0,6.5,38,0.00,,---,0.00,VWS V13.01,2013-01-02 20:58:00,
2013-01-02 16:03:00,83.5,55.2,29.91,WSW,248,0.0,3.4,38,0.00,,---,0.00,VWS V13.01,2013-01-02 21:03:00,
2013-01-02 16:08:00,83.3,55.1,29.91,WSW,248,0.0,3.4,38,0.00,,---,0.00,VWS V13.01,2013-01-02 21:08:00,
2013-01-02 16:13:00,83.1,54.9,29.90,WSW,248,2.0,3.4,38,0.00,,---,0.00,VWS V13.01,2013-01-02 21:13:00,
2013-01-02 16:18:00,82.9,55.5,29.91,SW,225,2.0,3.4,39,0.00,,---,0.00,VWS V13.01,2013-01-02 21:18:00,
2013-01-02 16:23:00,82.8,55.3,29.91,SW,225,0.0,3.4,39,0.00,,---,0.00,VWS V13.01,2013-01-02 21:23:00,
2013-01-02 16:28:00,82.6,55.1,29.91,SW,225,0.0,3.4,39,0.00,,---,0.00,VWS V13.01,2013-01-02 21:28:00,
2013-01-02 16:33:00,82.2,54.8,29.91,WNW,292,0.0,4.3,39,0.00,,---,0.00,VWS V13.01,2013-01-02 21:33:00,
2013-01-02 16:38:00,81.9,54.5,29.91,SW,225,0.0,4.3,39,0.00,,---,0.00,VWS V13.01,2013-01-02 21:38:00,
2013-01-02 16:43:00,81.9,54.5,29.91,SW,225,1.6,4.3,39,0.00,,---,0.00,VWS V13.01,2013-01-02 21:43:00,
2013-01-02 16:48:00,81.5,54.2,29.91,WSW,248,0.0,4.3,39,0.00,,---,0.00,VWS V13.01,2013-01-02 21:48:00,
2013-01-02 16:53:00,81.3,54.0,29.91,WSW,248,0.0,4.3,39,0.00,,---,0.00,VWS V13.01,2013-01-02 21:53:00,
2013-01-02 16:58:00,81.0,53.7,29.91,WSW,248,0.0,4.3,39,0.00,,---,0.00,VWS V13.01,2013-01-02 21:58:00,
2013-01-02 17:03:00,80.8,53.5,29.91,WSW,248,0.0,0.2,39,0.00,,---,0.00,VWS V13.01,2013-01-02 22:03:00,
2013-01-02 17:08:00,80.2,55.1,29.91,WSW,248,0.0,0.2,42,0.00,,---,0.00,VWS V13.01,2013-01-02 22:08:00,
2013-01-02 17:13:00,79.9,54.8,29.92,SSW,202,0.0,1.8,42,0.00,,---,0.00,VWS V13.01,2013-01-02 22:13:00,
2013-01-02 17:18:00,79.5,54.4,29.92,SSE,158,0.0,1.8,42,0.00,,---,0.00,VWS V13.01,2013-01-02 22:18:00,
2013-01-02 17:23:00,79.2,54.1,29.92,SSE,158,1.6,1.8,42,0.00,,---,0.00,VWS V13.01,2013-01-02 22:23:00,
2013-01-02 17:28:00,78.6,53.6,29.92,SE,135,0.0,1.8,42,0.00,,---,0.00,VWS V13.01,2013-01-02 22:28:00,
2013-01-02 17:33:00,78.3,53.3,29.92,SSE,158,0.0,1.8,42,0.00,,---,0.00,VWS V13.01,2013-01-02 22:33:00,
2013-01-02 17:38:00,77.9,57.2,29.93,SSE,158,0.0,1.8,49,0.00,,---,0.00,VWS V13.01,2013-01-02 22:38:00,
2013-01-02 17:43:00,77.5,56.9,29.93,SSE,158,0.0,1.8,49,0.00,,---,0.00,VWS V13.01,2013-01-02 22:43:00,
2013-01-02 17:48:00,77.4,56.7,29.93,SSE,158,0.0,3.6,49,0.00,,---,0.00,VWS V13.01,2013-01-02 22:48:00,
2013-01-02 17:53:00,77.2,56.6,29.93,SSE,158,0.0,3.6,49,0.00,,---,0.00,VWS V13.01,2013-01-02 22:53:00,
2013-01-02 17:58:00,76.8,56.2,29.93,SE,135,0.0,3.6,49,0.00,,---,0.00,VWS V13.01,2013-01-02 22:58:00,
2013-01-02 18:03:00,76.6,56.1,29.93,SE,135,0.0,0.0,49,0.00,,---,0.00,VWS V13.01,2013-01-02 23:03:00,
2013-01-02 18:08:00,76.5,59.1,29.93,SSE,158,0.0,3.8,55,0.00,,---,0.00,VWS V13.01,2013-01-02 23:08:00,
2013-01-02 18:13:00,76.5,59.6,29.93,SSE,158,0.0,3.8,56,0.00,,---,0.00,VWS V13.01,2013-01-02 23:13:00,
2013-01-02 18:18:00,76.3,59.5,29.93,South,180,2.9,3.8,56,0.00,,---,0.00,VWS V13.01,2013-01-02 23:18:00,
2013-01-02 18:23:00,76.1,59.3,29.93,SE,135,0.0,3.8,56,0.00,,---,0.00,VWS V13.01,2013-01-02 23:23:00,
2013-01-02 18:28:00,76.1,59.3,29.93,SSE,158,0.0,5.6,56,0.00,,---,0.00,VWS V13.01,2013-01-02 23:28:00,
2013-01-02 18:33:00,75.9,59.1,29.93,SSW,202,0.0,5.6,56,0.00,,---,0.00,VWS V13.01,2013-01-02 23:33:00,
2013-01-02 18:38:00,75.9,59.1,29.93,SSE,158,0.0,5.6,56,0.00,,---,0.00,VWS V13.01,2013-01-02 23:38:00,
2013-01-02 18:43:00,75.6,58.8,29.93,SSE,158,0.0,5.6,56,0.00,,---,0.00,VWS V13.01,2013-01-02 23:43:00,
2013-01-02 18:48:00,75.6,58.8,29.93,SE,135,0.0,5.6,56,0.00,,---,0.00,VWS V13.01,2013-01-02 23:48:00,
2013-01-02 18:53:00,75.4,60.5,29.93,SE,135,0.0,5.6,60,0.00,,---,0.00,VWS V13.01,2013-01-02 23:53:00,
2013-01-02 18:58:00,75.0,60.2,29.93,ESE,112,0.0,5.6,60,0.00,,---,0.00,VWS V13.01,2013-01-02 23:58:00,
2013-01-02 19:03:00,75.0,60.2,29.94,SSE,158,0.0,0.0,60,0.00,,---,0.00,VWS V13.01,2013-01-03 00:03:00,
2013-01-02 19:08:00,75.0,60.2,29.94,SSE,158,0.0,1.1,60,0.00,,---,0.00,VWS V13.01,2013-01-03 00:08:00,
2013-01-02 19:13:00,75.0,60.2,29.95,SSE,158,0.0,1.1,60,0.00,,---,0.00,VWS V13.01,2013-01-03 00:13:00,
2013-01-02 19:18:00,75.0,60.2,29.95,SE,135,0.0,4.9,60,0.00,,---,0.00,VWS V13.01,2013-01-03 00:18:00,
2013-01-02 19:23:00,75.0,60.2,29.95,South,180,0.0,4.9,60,0.00,,---,0.00,VWS V13.01,2013-01-03 00:23:00,
2013-01-02 19:28:00,75.0,60.2,29.95,South,180,0.0,4.9,60,0.00,,---,0.00,VWS V13.01,2013-01-03 00:28:00,
2013-01-02 19:33:00,74.8,60.0,29.95,South,180,0.0,4.9,60,0.00,,---,0.00,VWS V13.01,2013-01-03 00:33:00,
2013-01-02 19:38:00,74.8,60.0,29.95,South,180,0.0,4.9,60,0.00,,---,0.00,VWS V13.01,2013-01-03 00:38:00,
2013-01-02 19:43:00,74.7,59.9,29.96,South,180,0.0,4.9,60,0.00,,---,0.00,VWS V13.01,2013-01-03 00:43:00,
2013-01-02 19:48:00,74.5,59.7,29.96,South,180,0.0,4.9,60,0.00,,---,0.00,VWS V13.01,2013-01-03 00:48:00,
2013-01-02 19:53:00,74.3,59.5,29.96,South,180,0.0,4.9,60,0.00,,---,0.00,VWS V13.01,2013-01-03 00:53:00,
2013-01-02 19:58:00,74.1,60.3,29.96,South,180,0.0,4.9,62,0.00,,---,0.00,VWS V13.01,2013-01-03 00:58:00,
2013-01-02 20:03:00,73.9,60.6,29.96,South,180,0.0,0.0,63,0.00,,---,0.00,VWS V13.01,2013-01-03 01:03:00,
2013-01-02 20:08:00,73.8,60.4,29.96,South,180,0.0,0.0,63,0.00,,---,0.00,VWS V13.01,2013-01-03 01:08:00,
2013-01-02 20:13:00,73.6,60.7,29.96,South,180,0.0,0.0,64,0.00,,---,0.00,VWS V13.01,2013-01-03 01:13:00,
2013-01-02 20:18:00,73.4,60.5,29.96,South,180,0.0,0.0,64,0.00,,---,0.00,VWS V13.01,2013-01-03 01:18:00,
2013-01-02 20:23:00,73.0,60.2,29.96,South,180,0.0,0.0,64,0.00,,---,0.00,VWS V13.01,2013-01-03 01:23:00,
2013-01-02 20:28:00,73.0,60.6,29.96,South,180,0.0,0.0,65,0.00,,---,0.00,VWS V13.01,2013-01-03 01:28:00,
2013-01-02 20:33:00,72.7,60.2,29.96,South,180,0.0,0.0,65,0.00,,---,0.00,VWS V13.01,2013-01-03 01:33:00,
2013-01-02 20:38:00,72.5,60.1,29.96,South,180,0.0,0.0,65,0.00,,---,0.00,VWS V13.01,2013-01-03 01:38:00,
2013-01-02 20:43:00,72.5,60.1,29.96,South,180,0.0,0.0,65,0.00,,---,0.00,VWS V13.01,2013-01-03 01:43:00,
2013-01-02 20:48:00,72.5,60.1,29.96,South,180,0.0,0.0,65,0.00,,---,0.00,VWS V13.01,2013-01-03 01:48:00,
2013-01-02 20:53:00,72.5,61.3,29.96,South,180,0.0,0.0,68,0.00,,---,0.00,VWS V13.01,2013-01-03 01:53:00,
2013-01-02 20:58:00,72.3,61.2,29.96,South,180,0.0,0.0,68,0.00,,---,0.00,VWS V13.01,2013-01-03 01:58:00,
2013-01-02 21:03:00,72.3,61.2,29.96,South,180,0.0,0.0,68,0.00,,---,0.00,VWS V13.01,2013-01-03 02:03:00,
2013-01-02 21:08:00,72.3,61.6,29.96,South,180,0.0,0.0,69,0.00,,---,0.00,VWS V13.01,2013-01-03 02:08:00,
2013-01-02 21:13:00,72.3,61.6,29.96,South,180,0.0,0.0,69,0.00,,---,0.00,VWS V13.01,2013-01-03 02:13:00,
2013-01-02 21:18:00,72.3,61.6,29.96,South,180,0.0,0.0,69,0.00,,---,0.00,VWS V13.01,2013-01-03 02:18:00,
2013-01-02 21:23:00,72.1,61.4,29.97,South,180,0.0,0.0,69,0.00,,---,0.00,VWS V13.01,2013-01-03 02:23:00,
2013-01-02 21:28:00,72.1,62.2,29.96,South,180,0.0,0.0,71,0.00,,---,0.00,VWS V13.01,2013-01-03 02:28:00,
2013-01-02 21:33:00,72.1,62.2,29.97,South,180,0.0,0.0,71,0.00,,---,0.00,VWS V13.01,2013-01-03 02:33:00,
2013-01-02 21:38:00,72.1,62.2,29.97,South,180,0.0,0.0,71,0.00,,---,0.00,VWS V13.01,2013-01-03 02:38:00,
2013-01-02 21:43:00,72.1,62.2,29.97,South,180,0.0,0.0,71,0.00,,---,0.00,VWS V13.01,2013-01-03 02:43:00,
2013-01-02 21:48:00,72.1,62.2,29.96,South,180,0.0,0.0,71,0.00,,---,0.00,VWS V13.01,2013-01-03 02:48:00,
2013-01-02 21:53:00,72.1,62.2,29.96,South,180,0.0,0.0,71,0.00,,---,0.00,VWS V13.01,2013-01-03 02:53:00,
2013-01-02 21:58:00,72.1,62.2,29.97,South,180,0.0,0.0,71,0.00,,---,0.00,VWS V13.01,2013-01-03 02:58:00,
2013-01-02 22:03:00,72.1,63.0,29.97,South,180,0.0,0.0,73,0.00,,---,0.00,VWS V13.01,2013-01-03 03:03:00,
2013-01-02 22:08:00,72.1,63.0,29.97,South,180,0.0,0.0,73,0.00,,---,0.00,VWS V13.01,2013-01-03 03:08:00,
2013-01-02 22:13:00,72.0,62.8,29.97,South,180,0.0,0.0,73,0.00,,---,0.00,VWS V13.01,2013-01-03 03:13:00,
2013-01-02 22:18:00,72.0,62.8,29.97,South,180,0.0,0.0,73,0.00,,---,0.00,VWS V13.01,2013-01-03 03:18:00,
2013-01-02 22:23:00,72.0,62.8,29.97,South,180,0.0,0.0,73,0.00,,---,0.00,VWS V13.01,2013-01-03 03:23:00,
2013-01-02 22:28:00,72.0,62.8,29.97,South,180,0.0,0.0,73,0.00,,---,0.00,VWS V13.01,2013-01-03 03:28:00,
2013-01-02 22:34:00,72.0,62.8,29.97,South,180,0.0,0.0,73,0.00,,---,0.00,VWS V13.01,2013-01-03 03:34:00,
2013-01-02 22:41:00,72.0,62.8,29.97,South,180,0.0,0.0,73,0.00,,---,0.00,VWS V13.01,2013-01-03 03:41:00,
2013-01-02 22:46:00,71.8,62.7,29.97,South,180,0.0,0.0,73,0.00,,---,0.00,VWS V13.01,2013-01-03 03:46:00,
2013-01-02 22:51:00,71.8,63.1,29.97,South,180,0.0,0.0,74,0.00,,---,0.00,VWS V13.01,2013-01-03 03:51:00,
2013-01-02 22:56:00,71.4,62.7,29.97,South,180,0.0,0.0,74,0.00,,---,0.00,VWS V13.01,2013-01-03 03:56:00,
2013-01-02 23:01:00,71.4,62.7,29.97,South,180,0.0,0.0,74,0.00,,---,0.00,VWS V13.01,2013-01-03 04:01:00,
2013-01-02 23:06:00,71.2,62.5,29.97,South,180,0.0,0.0,74,0.00,,---,0.00,VWS V13.01,2013-01-03 04:06:00,
2013-01-02 23:11:00,71.2,62.5,29.97,South,180,0.0,0.0,74,0.00,,---,0.00,VWS V13.01,2013-01-03 04:11:00,
2013-01-02 23:16:00,71.2,62.5,29.97,South,180,0.0,0.0,74,0.00,,---,0.00,VWS V13.01,2013-01-03 04:16:00,
2013-01-02 23:21:00,71.2,62.5,29.97,South,180,0.0,0.0,74,0.00,,---,0.00,VWS V13.01,2013-01-03 04:21:00,
2013-01-02 23:26:00,71.4,62.7,29.97,South,180,0.0,0.0,74,0.00,,---,0.00,VWS V13.01,2013-01-03 04:26:00,
2013-01-02 23:31:00,71.4,62.7,29.97,South,180,0.0,0.0,74,0.00,,---,0.00,VWS V13.01,2013-01-03 04:31:00,
2013-01-02 23:36:00,71.6,62.9,29.97,South,180,0.0,0.0,74,0.00,,---,0.00,VWS V13.01,2013-01-03 04:36:00,
2013-01-02 23:41:00,71.8,63.1,29.97,South,180,0.0,0.0,74,0.00,,---,0.00,VWS V13.01,2013-01-03 04:41:00,
2013-01-02 23:46:00,71.8,63.1,29.97,South,180,0.0,0.0,74,0.00,,---,0.00,VWS V13.01,2013-01-03 04:46:00,
2013-01-02 23:51:00,71.8,63.8,29.97,South,180,0.0,0.0,76,0.00,,---,0.00,VWS V13.01,2013-01-03 04:51:00,
2013-01-02 23:56:00,71.8,63.8,29.97,South,180,0.0,0.0,76,0.00,,---,0.00,VWS V13.01,2013-01-03 04:56:00,